www.pogodaiklimat.ru

Погода и климат >> Архив погоды >> Россия >> Мурманская область >> Ковдор


ПОГОДА в Ковдоре

  • Прогноз погоды в Ковдоре
  • Монитор погоды в Ковдоре
  • Климат города

АРХИВ ПОГОДЫ в Ковдоре

Время (UTC), дата Ветер
(напр.,м/с)
 
Видим.   Явления Облачность Т
(С)
Тd
(С)
f
(%)
Тe
(С)
Тes
(С)
Комфортность P
(гПа)
Po
(гПа)
Тmin
(С)
Tmax
(С)
R
(мм)
R24
(мм)
S
(см)
03 9.07 В 2
{3}
20 км 2 балла +11.4 +5.5 67 +10 +12 1018.8 989.3 +7.0
06 9.07 В 1
{2}
20 км 2 балла +16.5 +4.5 45 +17 +23 1018.3 989.3 +7.0
09 9.07 Ю 1
{3}
н/о н/о +19.3 +5.3 40 +21 +21 комфорт 1018.2 989.5
12 9.07 СВ 1
{4}
20 км ясно +21.7 +1.8 27 +21 +33 комфорт 1018.5 990.0
15 9.07 ЮЗ 1
{3}
20 км ясно +22.7 +4.0 29 +23 +28 комфорт 1018.7 990.3
18 9.07 В 1
{3}
20 км ясно +18.9 +4.6 39 +20 +21 1020.8 992.0 +23.7
21 9.07 СВ 1
{1}
20 км ясно +11.9 +7.5 74 +12 +12 1022.7 993.2
00 10.07 штиль 0 20 км ясно +8.3 +6.7 90 +7 +8 1024.4 994.4
03 10.07 штиль 0 20 км ясно +11.7 +8.4 80 +11 +13 1025.7 996.0 +8.0
06 10.07 В 1 20 км ясно +20.0 +6.0 40 +22 +29 комфорт 1026.2 997.3 +8.0
09 10.07 В 2
{6}
20 км ясно +22.8 +5.6 33 +23 +34 комфорт 1024.2 995.7
12 10.07 В 2
{4}
20 км ясно +23.7 +4.5 29 +23 +33 комфорт 1023.4 995.0
15 10.07 ЮВ 2
{4}
20 км ясно +23.9 +3.4 26 +23 +28 комфорт 1022.8 994.4
18 10.07 ЮВ 1
{3}
20 км ясно +21.7 +3.8 31 +22 +23 комфорт 1023.3 994.7 +24.5
21 10.07 штиль 0 20 км ясно +13.7 +7.5 66 +13 +13 1024.5 995.1
00 11.07 СВ 1
{2}
20 км ясно +11.1 +6.3 72 +11 +11 1024.9 995.2
03 11.07 штиль 0 20 км 6 баллов +14.4 +7.0 61 +14 +15 1025.4 996.0 +10.0
06 11.07 З 1
{3}
20 км 6 баллов +22.2 +5.6 34 +23 +26 комфорт 1024.6 996.0 +10.0
09 11.07 ЮЗ 1
{2}
20 км 3/1 1000 м
[Cu hum Ci fib]
+25.2 +6.2 30 +25 +36 комфорт 1022.3 994.1
12 11.07 В 1
{3}
20 км 6 баллов +27.0 +6.9 28 +27 +31 жарко 1022.8 994.7
15 11.07 В 2
{4}
20 км 7 баллов +27.0 +5.8 26 +26 +28 жарко 1021.4 993.3
18 11.07 ЮВ 2
{4}
20 км 2 балла +23.0 +6.3 34 +24 +24 комфорт 1021.8 993.3 +28.1
21 11.07 В 1
{2}
20 км 6/6 1000 м
[Sc]
+19.0 +7.1 46 +21 +21 комфорт 1021.9 993.0
00 12.07 СВ 1
{2}
20 км 5 баллов +13.0 +7.7 70 +13 +13 1024.2 994.7
03 12.07 В 1
{1}
20 км 4 балла +15.6 +8.6 63 +16 +17 1023.9 994.7 +12.5
06 12.07 Ю 2
{4}
20 км 1 балл +22.2 +6.0 35 +23 +28 комфорт 1021.8 993.3 +12.5
09 12.07 ЮВ 3
{6}
20 км 3/0
[Ci sp]
+23.5 +3.4 27 +23 +31 комфорт 1020.1 991.7
12 12.07 Ю 2
{6}
20 км 7 баллов +24.0 -1.1 19 +23 +25 комфорт 1020.4 992.0
15 12.07 Ю 2
{4}
20 км 4 балла +24.6 -2.9 16 +23 +25 комфорт 1019.0 990.7
18 12.07 Ю 1
{4}
20 км 6 баллов +21.8 +0.3 24 +21 +22 комфорт 1017.8 989.3 +25.1
21 12.07 В 1
{2}
20 км 1/0
[Ci sp]
+15.2 +7.4 60 +16 +16 1017.9 988.8
00 13.07 СВ 1
{2}
20 км ясно +11.4 +6.6 72 +11 +11 1018.4 988.9
03 13.07 ЮВ 1
{1}
20 км 2 балла +14.3 +7.3 63 +15 +16 1018.5 989.3 +10.2
06 13.07 В 1
{2}
20 км 2 балла +22.1 +8.6 42 +23 +29 комфорт 1017.7 989.3 +10.2
09 13.07 ЮЗ 2
{3}
20 км 3/0
[Ci fib]
+26.0 +2.4 22 +25 +35 комфорт 1015.3 987.3
12 13.07 З 1
{4}
20 км 2 балла +27.4 +2.4 20 +26 +34 жарко 1015.9 988.0
15 13.07 ЮВ 1
{3}
20 км 2 балла +26.9 +1.3 19 +25 +29 комфорт 1014.6 986.7
18 13.07 В 3
{8}
20 км 2 балла +23.8 +5.6 31 +24 +24 комфорт 1014.9 986.7 +27.9
21 13.07 СВ 1 20 км 4/0
[Ac trans Ci sp]
+15.2 +8.4 64 +16 +16 1014.7 985.7
00 14.07 В 1
{2}
20 км 2 балла +13.5 +7.7 68 +14 +14 1015.9 986.7
03 14.07 В 1
{2}
20 км 6 баллов +16.9 +7.5 54 +18 +18 1015.6 986.7 +12.2
06 14.07 ЮВ 2
{4}
20 км 9 баллов +22.3 +7.7 39 +23 +24 комфорт 1013.6 985.3 +12.2
09 14.07 Ю 2
{4}
20 км 9/1 600 м
[Cu hum Ci sp]
+24.2 +7.4 34 +24 +32 комфорт 1011.8 983.7
12 14.07 Ю 1
{3}
20 км 9 баллов +24.2 +7.8 35 +25 +26 комфорт 1012.1 984.0
15 14.07 СЗ 1
{3}
20 км 9 баллов +21.3 +11.0 52 +23 +24 комфорт 1012.3 984.0
18 14.07 В 3
{5}
20 км гроза, ливневой дождь 9 баллов +18.5 +11.1 62 +19 +19 1012.6 984.0 +25.9 0.0
21 14.07 штиль 0 20 км в посл. час ливневой дождь {гроза} 9/9 600 м
[Cb cap]
+14.8 +14.0 95 +14 +14 1012.0 983.1
00 15.07 штиль 0 20 км 9 баллов +13.8 +13.3 97 +13 +13 1013.0 984.0
03 15.07 штиль 0 20 км 2 балла +14.3 +14.0 98 +14 +15 1013.0 984.0 +12.9 2
06 15.07 СВ 1
{2}
20 км 2 балла +21.3 +13.0 59 +24 +29 комфорт 1012.3 984.0 +12.9 2
09 15.07 ЮЗ 1
{3}
20 км 8/6 600 м
[Cb calv Ci sp]
+23.6 +12.7 50 +26 +30 жарко 1010.9 982.9
12 15.07 Ю 1
{4}
20 км 5 баллов +25.8 +10.4 38 +27 +32 жарко 1010.6 982.7
15 15.07 З 2
{4}
20 км 9 баллов +25.1 +9.0 36 +26 +26 жарко 1010.6 982.7
18 15.07 З 2-5
{16}
20 км в посл. час ливневой дождь 8/4 600 м
[Cb cap Ac trans Ci sp]
+16.6 +12.4 76 +17 +17 1011.6 982.9 +26.8 0.6
21 15.07 З 1
{3}
20 км 3/0
[Ac trans Ci sp]
+13.4 +12.0 91 +14 +14 1013.0 983.9

 

Местоположение метеостанции Ковдор (Мурманская область, Россия): широта 67.57 долгота 30.45 высота над уровнем моря 246 м.

В архиве по умолчанию представлена погода в Ковдоре за последнюю неделю. Архивные данные за месяц целиком и за предыдущие месяцы, начиная с января 2011 года, Вы можете получить, выбрав интересующий диапазон дат из раскрывающегося списка и нажав кнопку "Ввод!".


*Определитесь, кто Вы:
робот инопланетянин человек

Внимание! Время в таблицах - всемирное. Для получения местного времени необходимо прибавить поправку, которая в Ковдоре равна 3 ч.

Смотрите также архив погоды в соседних городах и на ближайших метеорологических станциях:

Погода в Salla Varriotunturi (Финляндия) (41 км)
Погода в Алакуртти (Мурманская область, Россия) (69 км)
Погода в Salla Naruska (Финляндия) (71 км)
Погода в Ниванкюле (Мурманская область, Россия) (88 км)
Погода в Зашейке (Мурманская область, Россия) (91 км)
Погода в Кандалакше (Мурманская область, Россия) (94 км)
Погода в Порту Витино (Мурманская область, Россия) (97 км)
Погода в Порту Кандалакша (Мурманская область, Россия) (98 км)
Погода в Savukoski (Финляндия) (102 км)
Погода в Зареченске (Мурманская область, Россия) (108 км)

Пояснения к столбцам:

Ветер - указаны скорость ветра в м/с - средняя за 10 мин, порывы в срок и между сроками (в фигурных скобках) и направление, откуда дует ветер: С - северный, СВ - северо-восточный, В - восточный, ЮВ - юго-восточный, Ю - южный, ЮЗ - юго-западный, З - западный, СЗ - северо-западный.
Видимость - горизонтальная дальность видимости в метрах или километрах. При видимости от 1 до 10 км при отсутствии осадков обычно наблюдается дымка, при ухудшении видимости до 1 км и менее - туман. В сухую погоду видимость может ухудшаться дымом, пылью или мглою.
Явления - указаны атмосферные явления, наблюдавшиеся в срок или в последний час перед сроком; фигурными скобками обозначены явления, наблюдавшиеся между сроками (за 1-3 часа до срока); квадратными скобками обозначены град или гололедные отложения с указанием их диаметра в мм.
Облачность - указаны через наклонную черту общая и нижняя облачность в баллах и высота нижней границы облаков в метрах; квадратными скобками обозначены формы облаков: Ci - перистые, Cs - перисто-слоистые, Cc - перисто-кучевые, Ac - высококучевые, As - высокослоистые, Sc - слоисто-кучевые, Ns - слоисто-дождевые, Cu - кучевые, Cb - кучево-дождевые. Подробнее классификацию облаков см. в Атласе облаков (PDF).
T - Температура воздуха - температура, измеренная на высоте 2 м над землей.
Td - Температура точки росы - температура, при понижении до которой содержащийся в воздухе водяной пар достигнет насыщения.
f - Относительная влажность воздуха - влажноcть воздуха, измеренная на высоте 2 м над землей.
Te - Эффективная температура - температура, которую ощущает одетый по сезону человек в тени. Характеристика душности погоды. При расчете учитывается влияние влажности воздуха и скорости ветра на теплоощущения человека.
Tes - Эффективная температура на солнце - температура, которую ощущает человек, с поправкой на солнечный нагрев. Характеристика знойности погоды. Зависит от высоты солнца над горизонтом, облачности и скорости ветра. Ночью, в пасмурную погоду, а также при ветре 12 м/с и более поправка равна нулю.
P - Атмосферное давление - приведенное к уровню моря атмосферное давление.
Po - Атмосферное давление - измеренное на уровне метеостанции атмосферное давление.
Tmin - Минимальная температура - минимум температуры воздуха на высоте 2 м над землей.
Tmax - Максимальная температура - максимум температуры воздуха на высоте 2 м над землей.
R - Количество осадков - Количество выпавших осадков за период времени, мм. При наведении курсора мыши на число - период времени, за который выпало указанное количество осадков.
R24 - Количество осадков - Количество выпавших осадков за 24 часа, мм.
S - Снежный покров - Высота снежного покрова, см. При наведении курсора мыши на число - состояние снежного покрова и степень покрытия местности в баллах.